SBMA

Details ICAO SBMA (MAB)
Name Maraba
Region Brazil
Timezone America/Belem (UTC-3.0)
Plans Departing 18
Arriving 24
Stats Elevation 357 ft / 109 m (AMSL)
Location -5.368588° -49.138025°
Runways 1
Magnetic Variation 20.545° W
Sunrise 2017-10-21 08:54:46 UTC / 2017-10-21 05:54:46 Local
Sunset 2017-10-21 21:09:48 UTC / 2017-10-21 18:09:48 Local
Advertisement - Login to hide

Runways

ID Width Length Bearing (true) Bearing (mag) Surface Threshold Offset Overrun Length
07 148 ft / 45 m 6,582 ft / 2,006 m 50.35° 70.89° Asphalt 0 ft / 0 m 195 ft / 59 m
25 148 ft / 45 m 6,582 ft / 2,006 m 230.35° 250.89° Asphalt 0 ft / 0 m 195 ft / 59 m

Map

Weather


0- 5 10 15 20 25 30 35+ Temperature / ° C

Clouds and Precipitation
Forecast for 2017-10-21 06:00 UTC. Updated an hour ago

Ground ~20,000 ft ~40,000 ft Winds

METAR

SBMA 210600Z 34005KT 9999 FEW020 28/22 Q1009

TAF

TAF TAF SBMA 210400Z 2106/2118 34005KT CAVOK TN25/2108Z TX40/2118Z BECMG 2109/2111 04010KT 9999 SCT020 BECMG 2113/2114 05005KT RMK PDY

Frequencies

Tower 125.90 MHz RDO
Warning: Do not use this data for real-world aviation or navigation. No guarantee of current accuracy is given.